Location: Prague
(50.0830°N, 14.4670°E)
Time: 01:27:33
(UTC+01:00)

Oscar 11 - Pass Details

Date: 03 December 2021
Orbit: 611 x 625 km, 97.6° (Epoch: 17 January)

Event Time Altitude Azimuth Distance (km) Brightness Sun altitude
Rises 05:37:08 0° 13° (NNE) 2,921 10.5 -19.1°
Reaches altitude 10° 05:39:21 10° 14° (NNE) 2,007 9.7 -18.8°
Maximum altitude 05:43:43 88° 101° (E) 630 7.0 -18.1°
Drops below altitude 10° 05:48:03 10° 194° (SSW) 1,983 9.6 -17.4°
Sets 05:50:13 0° 195° (SSW) 2,882 10.5 -17.1°
